User: anonymous   Login
Location: Laterina
(43.5167°N, 11.7167°E)
Time: 23:27:52
(UTC+00:00)
Language:

Cosmos 1707 - Orbit

View from above orbital plane
View from above orbital plane
View from above satellite
View from above satellite

Ground track
Ground track

The orbit data is extracted from the following two-line orbital elements,

1 16326U 85113A   20332.49239045 +.00001404 +00000-0 +74727-4 0  9992
2 16326 082.5133 050.0589 0008846 268.6277 091.3942 15.14425380907594
Epoch (UTC): 27 November 2020 11:49:02
Eccentricity: 0.0008846
inclination: 82.5133°
perigee height: 516 km
apogee height: 529 km
right ascension of ascending node: 50.0589°
argument of perigee: 268.6277°
revolutions per day: 15.14425380
mean anomaly at epoch: 91.3942°
orbit number at epoch: 90759

The dashed part of the orbit path shows where the satellite is in the earth's shadow,  

DLR